Regional Weather Roundup
Issued by NWS Nashville, TN

Home | Current Version | Previous Version | Text Only | Print | Product List | Glossary On
Versions: 1 2 3 4 5 6 7 8 9 10 11 12 13 14 15 16 17 18 19 20 21 22 23 24 25 26 27 28 29 30 31 32 33 34 35 36 37 38 39 40 41 42 43 44 45 46 47 48 49 50
000
ASUS44 KOHX 281715
RWROHX
MIDDLE TENNESSEE HOURLY WEATHER ROUNDUP
NATIONAL WEATHER SERVICE NASHVILLE TN
1200 PM CDT MON JUL 28 2014

NOTE: "FAIR" INDICATES FEW OR NO CLOUDS BELOW 12,000 FEET WITH
NO SIGNIFICANT WEATHER AND/OR OBSTRUCTIONS TO VISIBILITY.

* THESE REPORTS ARE NOT UNDER NWS QUALITY CONTROL AND MAY NOT
  REPORT WEATHER SUCH AS PRECIPITATION AND FOG.


TNZ005>011-023>034-057-059-062>066-078-080-281800
...NORTHERN MIDDLE TENNESSEE...

CITY           SKY/WX    TMP DP  RH WIND       PRES   REMARKS
CLARKSVILLE    PTSUNNY   81  59  47 NW15      30.03F
CROSSVILLE     LGT RAIN  78  59  51 NW14G20   30.04F
DICKSON        MOSUNNY   75  61  60 N14       30.05S
LEBANON        MOSUNNY   78  60  53 W12       30.01S
LIVINGSTON       N/A     74  59  59 NW8       30.02F
NASHVILLE      MOSUNNY   79  60  52 W12       30.02F
WEST NASHVILLE   N/A     79  61  53 W10       30.02F
SMYRNA         PTSUNNY   85  63  47 NW12      30.03S
SPARTA         MOSUNNY   79  64  61 NW8       30.02S
$$
TNZ056-058-060-061-075>077-079-093>097-281800
...SOUTHERN MIDDLE TENNESSEE...

CITY           SKY/WX    TMP DP  RH WIND       PRES   REMARKS
COLUMBIA       MOSUNNY   81  63  54 NW10      30.03S
FAYETTEVILLE   SUNNY     79  61  53 N9        30.03F
LEWISBURG      SUNNY     80  61  52 NW9       30.03S
MCMINNVILLE    MOSUNNY   77  64  65 W10       30.03S
MURFREESBORO   MOSUNNY   79  59  50 N10       30.01F
SHELBYVILLE    SUNNY     81  63  54 NW9       30.03S
TULLAHOMA      MOSUNNY   79  61  53 VRB7      30.04S
WINCHESTER     SUNNY     79  61  53 N10       30.03S
$$


...KEY TO REMARKS...
VSB - VISIBILITY IN MILES
WCI - WIND CHILL INDEX
HX  - HEAT INDEX



USA.gov is the U.S. government's official web portal to all federal, state and local government web resources and services.